www.pogodaiklimat.ru

Погода и климат >> Архив погоды >> Аргентина >> Буэнос-Айрес аэропорт


АРХИВ ПОГОДЫ в Буэнос-Айресе аэропорт

Время (UTC), дата Ветер
(напр.,м/с)
 
Видим.   Явления Облачность Т
(С)
Тd
(С)
f
(%)
Тe
(С)
Тes
(С)
Комфортность P
(гПа)
Po
(гПа)
Тmin
(С)
Tmax
(С)
R
(мм)
R24
(мм)
S
(см)
00 14.03 Ю 3 10 км 4/3 750 м
[Sc Ci fib]
+21.6 +15.7 69 +25 +25 комфорт 1012.5 1011.8 +18.5 +24.5
03 14.03 Ю 4 10 км 1/1 450 м
[St]
+19.9 +16.3 80 +23 +23 комфорт 1012.9 1012.2
06 14.03 Ю 2 9000 м дымка 1/1 450 м
[St]
+18.5 +16.2 86 +20 +20 по сезону 1013.4 1012.8
09 14.03 Ю 3 8000 м дымка 4/4 210 м
[St]
+17.1 +15.4 90 +17 +17 прохладно 1013.7 1013.0
12 14.03 Ю 3 10 км 4/4 400 м
[St Ci]
+18.4 +15.2 82 +19 +22 прохладно 1015.6 1014.9 +16.5 +21.6
15 14.03 Ю 3 10 км 1/1 1200 м
[Cu hum]
+22.5 +15.8 66 +27 +38 душно 1015.9 1015.2
18 14.03 нст 3 10 км 4/4 1230 м
[Cu hum Ac cuf]
+26.6 +16.0 52 +30 +36 душно 1014.5 1013.8
21 14.03 С 3 10 км 1/1 1500 м
[Cu hum]
+23.3 +17.9 72 +29 +30 душно 1014.2 1013.6
00 15.03 В 4 10 км 5/4 750 м
[St Ac As]
+21.9 +18.6 82 +27 +27 душно 1015.1 1014.4 +18.4 +26.6
03 15.03 В 4 10 км 5/5 450 м
[St]
+21.0 +18.6 86 +26 +26 душно 1016.3 1015.6
06 15.03 Ю 1 10 км 1/1 600 м
[St]
+20.6 +18.7 89 +26 +26 душно 1016.4 1015.7
09 15.03 Ю 1 9000 м дымка 8/8 360 м
[St]
+20.2 +18.8 92 +25 +25 комфорт 1016.6 1016.0
12 15.03 Ю 3 4000 м слаб. морось 9/9 360 м
[Frnb]
+21.4 +19.5 89 +26 +27 душно 1017.5 1016.8 +20.2 +22.0 0.0
15 15.03 В 10 7000 м слаб. морось 9/9 360 м
[Frnb]
+22.6 +19.8 84 +29 +29 очень
душно
1017.7 1017.0
18 15.03 В 9 10 км в посл. час морось 9/6 420 м
[Frnb Ac As]
+23.6 +20.1 81 +29 +29 душно 1016.8 1016.1 0.1
21 15.03 В 8 10 км 8/8 400 м
[Frnb]
+22.8 +19.9 84 +29 +29 очень
душно
1016.0 1015.3
00 16.03 В 8 10 км 9/9 360 м
[St]
+22.2 +19.7 86 +28 +28 душно 1016.7 1016.0 +21.4 +24.5
03 16.03 В 10 10 км 3/3 400 м
[St]
+22.6 +20.4 87 +29 +29 очень
душно
1006.7 1016.0
06 16.03 В 6 10 км 9/9 400 м
[St]
+22.0 +19.7 87 +28 +28 душно 1015.9 1015.2
09 16.03 СВ 5 10 км 10/10 360 м
[St]
+22.3 +19.8 86 +28 +28 душно 1016.4 1015.7
12 16.03 СВ 4 10 км 10/10 450 м
[St]
+22.7 +19.5 82 +29 +29 очень
душно
1017.6 1016.9 +21.8 +23.0 0.1
15 16.03 В 4 10 км 8/3 900 м
[Sc Ac cast Cs]
+24.6 +19.7 74 +30 +34 очень
душно
1017.1 1016.4
18 16.03 В 6 10 км 9/5 1200 м
[Cu Sc Ac As Cs]
+24.0 +20.2 79 +30 +31 очень
душно
1015.7 1015.0
21 16.03 ЮВ 5 10 км в посл. час дождь 10/4 360 м
[Sc Ac As Cs]
+23.5 +21.4 88 +30 +30 очень
душно
1015.1 1014.4
00 17.03 ЮВ 7 9000 м слаб. дождь 10/4 270 м
[St Ac As Cs]
+23.3 +21.8 91 +32 +32 очень
душно
1014.6 1013.8 +22.7 +25.5 0.0
03 17.03 В 5 10 км в посл. час дождь 10/6 330 м
[St Ac As Cs]
+23.7 +21.9 90 +31 +31 очень
душно
1015.3 1014.6
06 17.03 СВ 5 10 км {дождь} 10/4 500 м
[St Ac As Cs]
+23.0 +20.4 85 +30 +30 очень
душно
1014.3 1013.6 0.4
09 17.03 СВ 3 10 км 10/1 630 м
[St Ac As Cs]
+22.3 +18.9 81 +28 +28 душно 1013.4 1012.8
12 17.03 СЗ 3 10 км 5/0
[Ac As]
+22.4 +18.1 77 +28 +30 душно 1012.2 1011.4 +22.0 +24.0 0.4
15 17.03 В 3 10 км 6/0
[Cs]
+24.6 +17.7 65 +29 +39 душно 1012.2 1011.4
18 17.03 З 31 10 км 4/0
[Ac As]
+25.4 +18.9 67 +30 +30 душно 1009.7 1090.8
21 17.03 СВ 5 10 км 9/0
[Ac As]
+24.6 +19.4 73 +30 +30 очень
душно
1008.9 1008.2
00 18.03 В 4 10 км ясно +23.9 +20.4 81 +30 +30 очень
душно
1009.4 1008.6 +22.4 +25.6
03 18.03 Ю 1 10 км ясно +22.2 +19.1 83 +28 +28 душно 1009.1 1008.4
06 18.03 ЮЗ 1 10 км ясно +21.2 +19.7 91 +26 +26 душно 1007.9 1007.2
09 18.03 ЮЗ 2 10 км ясно +21.7 +20.2 91 +27 +27 душно 1008.1 1007.4
12 18.03 ЮЗ 2 10 км ясно +23.5 +19.3 77 +28 +33 душно 1009.5 1008.8 +20.8 +24.0
15 18.03 Ю 2 10 км 4/4 1050 м
[Cu hum]
+27.3 +17.4 55 +31 +40 душно 1008.9 1008.2
18 18.03 Ю 3 10 км 3/3 1350 м
[Cu med, cong]
+29.1 +14.6 41 +31 +38 жарко 1007.8 1007.0
21 18.03 Ю 2 10 км ясно +29.4 +13.7 38 +31 +32 жарко 1007.6 1006.9
00 19.03 ЮЗ 1 10 км 4/0
[Ac trans]
+25.9 +14.3 49 +28 +28 жарко 1008.6 1007.8 +23.0 +30.1
03 19.03 Ю 4 10 км ясно +22.5 +16.5 69 +27 +27 душно 1010.4 1009.7
06 19.03 Ю 4 10 км ясно +17.4 +12.2 72 +17 +17 прохладно 1012.2 1011.4
09 19.03 Ю 5 10 км 6/6 1140 м
[Sc]
+17.2 +12.2 72 +17 +17 прохладно 1013.7 1013.0
12 19.03 Ю 5 10 км 5/0
[Ac trans]
+18.1 +11.4 65 +18 +19 прохладно 1015.8 1015.2 +16.6 +25.9
15 19.03 Ю 4 10 км 9/0
[Ac As]
+19.6 +8.4 48 +21 +24 комфорт 1017.8 1017.2
18 19.03 Ю 3 7000 м слаб. дождь 10/4 750 м
[Sc Ac As]
+17.6 +9.3 58 +18 +20 холодно 1018.0 1017.3 0.0
21 19.03 Ю 3 10 км {дождь} 9/0
[Ac As Cs]
+18.3 +9.9 58 +19 +19 прохладно 1017.9 1017.2
00 20.03 Ю 4 10 км {дождь} 3/1 900 м
[Sc diur, vesp Ac cast]
+16.7 +10.8 68 +16 +16 холодно 1019.7 1019.0 +16.7 +20.0 0.2
03 20.03 Ю 4 10 км 9/4 1170 м
[Sc Ac As]
+16.7 +9.3 62 +16 +16 холодно 1021.1 1020.4
06 20.03 Ю 4 10 км 3/1 1500 м
[Sc Ac trans]
+15.5 +7.8 60 +15 +15 холодно 1022.2 1021.6
09 20.03 Ю 3 10 км 1/0
[Ac trans]
+14.4 +7.6 64 +14 +14 холодно 1022.2 1021.6
12 20.03 Ю 2 10 км ясно +15.7 +7.6 59 +16 +20 прохладно 1023.5 1022.8 +13.8 +17.1 0.2
15 20.03 ЮЗ 3 10 км 1/1 900 м
[Cu hum]
+18.9 +6.4 44 +20 +31 прохладно 1023.6 1022.9
18 20.03 Ю 3 10 км 3/3 1350 м
[Cu hum]
+20.3 +5.2 37 +21 +27 комфорт 1023.2 1022.5

 

Местоположение метеостанции Буэнос-Айрес аэропорт (Аргентина): широта -34.56 долгота -58.41 высота над уровнем моря 6 м.

В архиве по умолчанию представлена погода в Буэнос-Айресе аэропорт за последнюю неделю. Архивные данные за месяц целиком и за предыдущие месяцы, начиная с января 2011 года, Вы можете получить, выбрав интересующий диапазон дат из раскрывающегося списка и нажав кнопку "Ввод!".


*Определитесь, кто Вы:
робот инопланетянин человек

Внимание! Время в таблицах - всемирное. Для получения местного времени необходимо прибавить поправку, которая равна -3 ч.

Смотрите также архив погоды в соседних городах и на ближайших метеорологических станциях:

Погода в Буэнос-Айресе (Аргентина) (7 км)
Погода в Эсейсе (Аргентина) (30 км)
Погода в Колонии (Уругвай) (55 км)
Погода в Ла-Плате (Аргентина) (64 км)
Погода в Мерседесе (Уругвай) (149 км)
Погода в Гуалегуайчу (Аргентина) (174 км)
Погода в Лас Флоресе (Аргентина) (179 км)
Погода в Мелилье (Уругвай) (199 км)
Погода в Прадо (Уругвай) (205 км)
Погода в Долоресе (Аргентина) (206 км)

Пояснения к столбцам:

Ветер - указаны скорость ветра в м/с - средняя за 10 мин, порывы в срок и между сроками (в фигурных скобках) и направление, откуда дует ветер: С - северный, СВ - северо-восточный, В - восточный, ЮВ - юго-восточный, Ю - южный, ЮЗ - юго-западный, З - западный, СЗ - северо-западный.
Видимость - горизонтальная дальность видимости в метрах или километрах. При видимости от 1 до 10 км при отсутствии осадков обычно наблюдается дымка, при ухудшении видимости до 1 км и менее - туман. В сухую погоду видимость может ухудшаться дымом, пылью или мглою.
Явления - указаны атмосферные явления, наблюдавшиеся в срок или в последний час перед сроком; фигурными скобками обозначены явления, наблюдавшиеся между сроками (за 1-3 часа до срока); квадратными скобками обозначены град или гололедные отложения с указанием их диаметра в мм.
Облачность - указаны через наклонную черту общая и нижняя облачность в баллах и высота нижней границы облаков в метрах; квадратными скобками обозначены формы облаков: Ci - перистые, Cs - перисто-слоистые, Cc - перисто-кучевые, Ac - высококучевые, As - высокослоистые, Sc - слоисто-кучевые, Ns - слоисто-дождевые, Cu - кучевые, Cb - кучево-дождевые. Подробнее классификацию облаков см. в Атласе облаков (PDF).
T - Температура воздуха - температура, измеренная на высоте 2 м над землей.
Td - Температура точки росы - температура, при понижении до которой содержащийся в воздухе водяной пар достигнет насыщения.
f - Относительная влажность воздуха - влажноcть воздуха, измеренная на высоте 2 м над землей.
Te - Эффективная температура - температура, которую ощущает одетый по сезону человек в тени. Характеристика душности погоды. При расчете учитывается влияние влажности воздуха и скорости ветра на теплоощущения человека.
Tes - Эффективная температура на солнце - температура, которую ощущает человек, с поправкой на солнечный нагрев. Характеристика знойности погоды. Зависит от высоты солнца над горизонтом, облачности и скорости ветра. Ночью, в пасмурную погоду, а также при ветре 12 м/с и более поправка равна нулю.
P - Атмосферное давление - приведенное к уровню моря атмосферное давление.
Po - Атмосферное давление - измеренное на уровне метеостанции атмосферное давление.
Tmin - Минимальная температура - минимум температуры воздуха на высоте 2 м над землей.
Tmax - Максимальная температура - максимум температуры воздуха на высоте 2 м над землей.
R - Количество осадков - Количество выпавших осадков за период времени, мм. При наведении курсора мыши на число - период времени, за который выпало указанное количество осадков.
R24 - Количество осадков - Количество выпавших осадков за 24 часа, мм.
S - Снежный покров - Высота снежного покрова, см. При наведении курсора мыши на число - состояние снежного покрова и степень покрытия местности в баллах.